CW7400 Weather Reports


time (UTC)temp
C
wind
direction
speed
KPH
gust
KPH
rain 1hr
cm
rain 24hr
cm
rain mn
cm
humidity
%
barometer
mb
20260505080004 14 0 0.0 3.2 0.00 0.00 0.00 73 1015.7
20260505075404 15 0 0.0 3.2 0.00 0.00 0.00 73 1015.5
20260505074504 15 0 0.0 3.2 0.00 0.00 0.00 73 1015.6
20260505073604 15 0 0.0 12.9 0.00 0.00 0.00 72 1015.5
20260505072704 15 0 0.0 12.9 0.00 0.00 0.00 72 1015.4
20260505071825 15 0 0.0 9.7 0.00 0.00 0.00 72 1015.4
20260505070903 15 0 0.0 3.2 0.00 0.00 0.00 72 1015.4
20260505070025 15 0 0.0 9.7 0.00 0.00 0.00 71 1015.4
20260505065404 15 0 0.0 9.7 0.00 0.00 0.00 71 1015.4
20260505064504 16 0 0.0 12.9 0.00 0.00 0.00 70 1015.4
20260505063604 16 0 0.0 12.9 0.00 0.00 0.00 70 1015.4
20260505062704 16 0 0.0 3.2 0.00 0.00 0.00 70 1015.3
20260505061803 16 0 0.0 12.9 0.00 0.00 0.00 70 1015.3
20260505060903 16 0 0.0 9.7 0.00 0.00 0.00 69 1015.4
20260505060004 16 0 0.0 16.1 0.00 0.00 0.00 69 1015.4
20260505055404 16 0 0.0 16.1 0.00 0.00 0.00 69 1015.3
20260505054504 16 258 4.8 29.0 0.00 0.00 0.00 68 1015.4
20260505053604 16 0 0.0 22.5 0.00 0.00 0.00 68 1015.4
20260505052704 16 0 0.0 25.7 0.00 0.00 0.00 69 1015.5
20260505051803 16 0 0.0 9.7 0.00 0.00 0.00 69 1015.5
20260505050925 16 0 0.0 9.7 0.00 0.00 0.00 68 1015.5
20260505040903 17 305 4.8 12.9 0.00 0.00 0.00 66 1015.4
20260505040005 17 0 0.0 16.1 0.00 0.00 0.00 66 1015.5
20260505035403 17 0 0.0 9.7 0.00 0.00 0.00 66 1015.5
20260505034503 17 0 0.0 3.2 0.00 0.00 0.00 65 1015.5
20260505033625 18 0 0.0 9.7 0.00 0.00 0.00 65 1015.5
20260505032703 18 0 0.0 3.2 0.00 0.00 0.00 64 1015.5
20260505031803 18 0 0.0 16.1 0.00 0.00 0.00 63 1015.5
20260505030903 18 0 0.0 6.4 0.00 0.00 0.00 63 1015.4
20260505030004 18 0 0.0 19.3 0.00 0.00 0.00 61 1015.5
20260505025424 19 0 0.0 19.3 0.00 0.00 0.00 61 1015.4
20260505024503 19 269 4.8 22.5 0.00 0.00 0.00 60 1015.4
20260505023624 19 0 0.0 22.5 0.00 0.00 0.00 58 1015.4
20260505022703 20 0 0.0 16.1 0.00 0.00 0.00 56 1015.3
20260505021803 20 145 4.8 22.5 0.00 0.00 0.00 53 1015.2
20260505020903 20 255 4.8 19.3 0.00 0.00 0.00 50 1015.1
20260505020004 20 0 0.0 12.9 0.00 0.00 0.00 50 1015.1
20260505015424 20 0 0.0 3.2 0.00 0.00 0.00 50 1015.1
20260505014503 20 0 0.0 6.4 0.00 0.00 0.00 48 1014.8
20260505013603 21 0 0.0 16.1 0.00 0.00 0.00 46 1014.7
20260505012703 21 0 0.0 3.2 0.00 0.00 0.00 46 1014.6
20260505011803 21 0 0.0 16.1 0.00 0.00 0.00 46 1014.5
20260505010903 21 0 0.0 9.7 0.00 0.00 0.00 46 1014.4
20260505010025 21 0 0.0 3.2 0.00 0.00 0.00 45 1014.3
20260505005424 21 0 0.0 3.2 0.00 0.00 0.00 45 1014.2
20260505004503 21 0 0.0 12.9 0.00 0.00 0.00 45 1014.0
20260505003603 21 0 0.0 12.9 0.00 0.00 0.00 44 1013.9
20260505002703 22 0 0.0 3.2 0.00 0.00 0.00 43 1013.8
20260505001824 22 0 0.0 12.9 0.00 0.00 0.00 42 1013.8
20260505000903 22 0 0.0 12.9 0.00 0.00 0.00 40 1013.8
20260505000004 23 0 0.0 6.4 0.00 0.00 0.00 40 1013.7
20260504235403 23 0 0.0 6.4 0.00 0.00 0.00 39 1013.7
20260504234503 23 0 0.0 6.4 0.00 0.00 0.00 38 1013.6
20260504233603 23 0 0.0 6.4 0.00 0.00 0.00 38 1013.4
20260504232703 24 0 0.0 3.2 0.00 0.00 0.00 36 1013.3
20260504231803 24 0 0.0 3.2 0.00 0.00 0.00 34 1013.3
20260504230903 25 0 0.0 3.2 0.00 0.00 0.00 35 1013.3
20260504230004 25 0 0.0 6.4 0.00 0.00 0.00 34 1013.3
20260504225403 25 0 0.0 6.4 0.00 0.00 0.00 33 1013.3
20260504224503 25 0 0.0 6.4 0.00 0.00 0.00 32 1013.3
20260504223624 25 0 0.0 12.9 0.00 0.00 0.00 32 1013.4
20260504222703 26 0 0.0 16.1 0.00 0.00 0.00 32 1013.4
20260504221803 26 0 0.0 9.7 0.00 0.00 0.00 31 1013.4
20260504220903 26 230 4.8 12.9 0.00 0.00 0.00 32 1013.4
20260504220004 26 0 0.0 12.9 0.00 0.00 0.00 32 1013.4
20260504215403 26 254 4.8 12.9 0.00 0.00 0.00 32 1013.3
20260504214503 27 252 4.8 9.7 0.00 0.00 0.00 32 1013.4
20260504213603 27 254 4.8 9.7 0.00 0.00 0.00 31 1013.4
20260504212724 28 0 0.0 9.7 0.00 0.00 0.00 30 1013.5
20260504211803 28 0 0.0 12.9 0.00 0.00 0.00 30 1013.5
20260504210903 28 0 0.0 9.7 0.00 0.00 0.00 32 1013.4
20260504210004 28 0 0.0 6.4 0.00 0.00 0.00 31 1013.5
20260504205403 28 0 0.0 6.4 0.00 0.00 0.00 31 1013.5
20260504204524 28 238 4.8 16.1 0.00 0.00 0.00 30 1013.6
20260504203624 28 0 0.0 16.1 0.00 0.00 0.00 30 1013.7
20260504202724 28 0 0.0 9.7 0.00 0.00 0.00 33 1013.8
20260504201803 28 75 4.8 9.7 0.00 0.00 0.00 32 1013.9
20260504200903 27 233 4.8 12.9 0.00 0.00 0.00 33 1014.0
20260504200025 27 226 4.8 9.7 0.00 0.00 0.00 31 1014.0
20260504195403 27 244 4.8 9.7 0.00 0.00 0.00 32 1014.1
20260504194503 27 0 0.0 12.9 0.00 0.00 0.00 33 1014.2
20260504193603 27 253 4.8 9.7 0.00 0.00 0.00 31 1014.2
20260504192703 27 0 0.0 9.7 0.00 0.00 0.00 34 1014.5
20260504191803 27 239 4.8 16.1 0.00 0.00 0.00 35 1014.4
20260504190903 27 138 4.8 16.1 0.00 0.00 0.00 31 1014.5
20260504190004 27 0 0.0 6.4 0.00 0.00 0.00 34 1014.7
20260504185403 27 233 4.8 19.3 0.00 0.00 0.00 31 1014.8
20260504184503 27 257 4.8 12.9 0.00 0.00 0.00 34 1015.0
20260504183603 27 98 4.8 12.9 0.00 0.00 0.00 34 1015.1
20260504182703 27 78 4.8 9.7 0.00 0.00 0.00 35 1015.2
20260504181803 26 167 4.8 12.9 0.00 0.00 0.00 35 1015.2
20260504180903 26 249 4.8 22.5 0.00 0.00 0.00 36 1015.2
20260504180004 26 244 4.8 22.5 0.00 0.00 0.00 38 1015.3
20260504175424 26 254 4.8 12.9 0.00 0.00 0.00 38 1015.3
20260504174503 26 244 4.8 12.9 0.00 0.00 0.00 39 1015.5
20260504173603 26 230 4.8 12.9 0.00 0.00 0.00 37 1015.5
20260504172703 25 238 4.8 12.9 0.00 0.00 0.00 42 1015.6
20260504171803 25 150 4.8 16.1 0.00 0.00 0.00 39 1015.9
20260504170903 25 76 4.8 12.9 0.00 0.00 0.00 41 1016.1
20260504150903 22 0 0.0 6.4 0.00 0.00 0.00 51 1017.1
20260504140904 19 0 0.0 9.7 0.00 0.00 0.00 60 1017.4
20260504081804 8 0 0.0 0.0 0.00 0.00 0.00 82 1017.3
20260504080904 8 0 0.0 3.2 0.00 0.00 0.00 83 1017.3